Hourly Weather Roundup
Issued by NWS Central Illinois

Home | Current Version | Previous Version | Graphics & Text | Print | Product List | Glossary On
Versions: 1 2 3 4 5 6 7 8 9 10 11 12 13 14 15 16 17 18 19 20 21 22 23 24 25 26 27 28 29 30 31 32 33 34 35 36 37 38 39 40 41 42 43 44 45 46 47 48 49 50
000
NZUS43 KILX 032110
HWRILX

AREA WEATHER ROUNDUP
NATIONAL WEATHER SERVICE, LINCOLN IL
400 PM CDT THU SEP 03 2015


CITY           SKY/WX    TMP DP  RH WIND       PRES   REMARKS
BLOOMINGTON    SUNNY     94  66  39 SW10      29.94F HX  97
CHAMPAIGN      PTSUNNY   91  66  43 SW8       29.93F HX  93
DANVILLE       SUNNY     90  68  48 SW9       29.91F HX  93
DECATUR        MOSUNNY   94  65  38 W7        29.93F HX  96
EFFINGHAM      SUNNY     92  61  34 SW8       29.96F HX  92
FLORA          MOSUNNY   92  65  41 CALM      29.95F HX  94
GALESBURG      MOSUNNY   90  69  49 S8        29.91F HX  94
JACKSONVILLE   MOSUNNY   94  67  41 SW7       29.92F HX  97
LACON          SUNNY     90  67  45 SW8       29.90F HX  93
LAWRENCEVILLE  MOSUNNY   92  64  39 MISG      29.94F HX  93
LITCHFIELD     SUNNY     91  64  41 SW5       29.95F HX  92
$$


CITY           SKY/WX    TMP DP  RH WIND       PRES   REMARKS
LINCOLN        MOSUNNY   95  62  33 SW6       29.90F HX  95
MACOMB         MOSUNNY   92  65  41 W7        29.93F HX  94
MATTOON        SUNNY     91  62  37 W6        29.94F HX  91
MT CARMEL AP   SUNNY     91  63  38 CALM      29.94F HX  92
OLNEY-NOBLE AP PTSUNNY   91  68  46 SW5       29.95F HX  95
PARIS          MOSUNNY   91  68  45 SW9       29.94F HX  95
PEORIA         MOSUNNY   94  66  39 W10       29.91F HX  97
PONTIAC        SUNNY     91  70  49 SW9       29.92F HX  96
RANTOUL        NOT AVBL
ROBINSON       SUNNY     91  65  42 SW9       29.94F HX  92
SPRINGFIELD    MOSUNNY   95  68  41 W10       29.92F HX  99
TAYLORVILLE    MOSUNNY   91  66  43 S7        29.93F HX  94
$$

...REGIONAL REPORTS...


CITY           SKY/WX    TMP DP  RH WIND       PRES   REMARKS
CHICAGO O`HARE MOSUNNY   90  68  48 W12       29.88F HX  94
KANKAKEE       MOSUNNY   91  71  52 SW9       29.91F HX  97
MOLINE         SUNNY     91  69  48 SW10      29.88F HX  96
MOUNT STERLING SUNNY     91  66  44 S7        29.92F HX  93
MOUNT VERNON   MOSUNNY   91  70  49 S7        29.96F HX  97
PITTSFIELD     SUNNY     93  62  36 S6        29.93F HX  93
QUINCY         SUNNY     92  63  38 SW9       29.92F HX  93
ROCKFORD       PTSUNNY   88  72  58 W7        29.91F HX  94
$$


CITY           SKY/WX    TMP DP  RH WIND       PRES   REMARKS
BURLINGTON     MOSUNNY   92  69  47 SW8       29.90F HX  97
CEDAR RAPIDS   MOSUNNY   88  76  67 S7        29.88F HX  99
DES MOINES     MOSUNNY   91  70  49 S14       29.86F HX  96
KIRKSVILLE     SUNNY     91  67  44 SW10      29.93F HX  94
OTTUMWA        SUNNY     90  72  55 SW12      29.87F HX  97
ST LOUIS       MOSUNNY   93  66  40 W9        29.94F HX  96
$$


CITY           SKY/WX    TMP DP  RH WIND       PRES   REMARKS
TERRE HAUTE    MOSUNNY   91  65  41 SW7       29.94F HX  93
EVANSVILLE     MOSUNNY   90  66  45 VRB3      29.95F HX  92
INDIANAPOLIS   PTSUNNY   89  65  44 SW12      29.95F HX  91
LAFAYETTE      SUNNY     90  63  40 W13       29.92F HX  91
MADISON        PTSUNNY   85  73  67 NE9       29.90S HX  91
MILWAUKEE      MOSUNNY   75  68  78 NE10      29.90F
$$





USA.gov is the U.S. government's official web portal to all federal, state and local government web resources and services.